Year,Month,Day,Hour,Minute,Value (Times are PST for temperature in C)
2010,10,17,00,00,4.50
2010,10,17,00,01,4.60
2010,10,17,00,02,4.50
2010,10,17,00,03,4.50
2010,10,17,00,04,4.50
2010,10,17,00,05,4.40
2010,10,17,00,06,4.40
2010,10,17,00,07,4.40
2010,10,17,00,08,4.40
2010,10,17,00,09,4.30
2010,10,17,00,10,4.30
2010,10,17,00,11,4.30
2010,10,17,00,12,4.30
2010,10,17,00,13,4.30
2010,10,17,00,14,4.30
2010,10,17,00,15,4.30
2010,10,17,00,16,4.30
2010,10,17,00,17,4.30
2010,10,17,00,18,4.30
2010,10,17,00,19,4.30
2010,10,17,00,20,4.30
2010,10,17,00,21,4.30
2010,10,17,00,22,4.30
2010,10,17,00,23,4.30
2010,10,17,00,24,4.30
2010,10,17,00,25,4.30
2010,10,17,00,26,4.30
2010,10,17,00,27,4.30
2010,10,17,00,28,4.30
2010,10,17,00,29,4.30
2010,10,17,00,30,4.30
2010,10,17,00,31,4.30
2010,10,17,00,32,4.30
2010,10,17,00,33,4.30
2010,10,17,00,34,4.30
2010,10,17,00,35,4.30
2010,10,17,00,36,4.30
2010,10,17,00,37,4.20
2010,10,17,00,38,4.20
2010,10,17,00,39,4.30
2010,10,17,00,40,4.30
2010,10,17,00,41,4.30
2010,10,17,00,42,4.30
2010,10,17,00,43,4.30
2010,10,17,00,44,4.30
2010,10,17,00,45,4.30
2010,10,17,00,46,4.30
2010,10,17,00,47,4.20
2010,10,17,00,48,4.30
2010,10,17,00,49,4.20
2010,10,17,00,50,4.20
2010,10,17,00,51,4.20
2010,10,17,00,52,4.20
2010,10,17,00,53,4.20
2010,10,17,00,54,4.20
2010,10,17,00,55,4.20
2010,10,17,00,56,4.20
2010,10,17,00,57,4.20
2010,10,17,00,58,4.20
2010,10,17,00,59,4.30
2010,10,17,01,00,4.30
2010,10,17,01,01,4.30
2010,10,17,01,02,4.30
2010,10,17,01,03,4.20
2010,10,17,01,04,4.20
2010,10,17,01,05,4.20
2010,10,17,01,06,4.20
2010,10,17,01,07,4.20
2010,10,17,01,08,4.10
2010,10,17,01,09,4.10
2010,10,17,01,10,4.10
2010,10,17,01,11,4.10
2010,10,17,01,12,4.00
2010,10,17,01,13,4.00
2010,10,17,01,14,3.90
2010,10,17,01,15,3.90
2010,10,17,01,16,3.90
2010,10,17,01,17,3.90
2010,10,17,01,18,3.90
2010,10,17,01,19,3.90
2010,10,17,01,20,3.90
2010,10,17,01,21,3.90
2010,10,17,01,22,3.90
2010,10,17,01,23,3.90
2010,10,17,01,24,3.90
2010,10,17,01,25,3.80
2010,10,17,01,26,3.80
2010,10,17,01,27,3.80
2010,10,17,01,28,3.80
2010,10,17,01,29,3.80
2010,10,17,01,30,3.80
2010,10,17,01,31,3.80
2010,10,17,01,32,3.90
2010,10,17,01,33,3.90
2010,10,17,01,34,3.90
2010,10,17,01,35,3.90
2010,10,17,01,36,3.90
2010,10,17,01,37,3.90
2010,10,17,01,38,3.90
2010,10,17,01,39,3.90
2010,10,17,01,40,3.90
2010,10,17,01,41,3.90
2010,10,17,01,42,3.90
2010,10,17,01,43,3.90
2010,10,17,01,44,3.90
2010,10,17,01,45,3.90
2010,10,17,01,46,3.90
2010,10,17,01,47,3.90
2010,10,17,01,48,4.00
2010,10,17,01,49,4.00
2010,10,17,01,50,4.00
2010,10,17,01,51,4.00
2010,10,17,01,52,4.00
2010,10,17,01,53,4.00
2010,10,17,01,54,4.00
2010,10,17,01,55,4.00
2010,10,17,01,56,4.00
2010,10,17,01,57,4.00
2010,10,17,01,58,4.00
2010,10,17,01,59,3.90
2010,10,17,02,00,3.90
2010,10,17,02,01,3.90
2010,10,17,02,02,3.90
2010,10,17,02,03,3.80
2010,10,17,02,04,3.80
2010,10,17,02,05,3.80
2010,10,17,02,06,3.80
2010,10,17,02,07,3.80
2010,10,17,02,08,3.80
2010,10,17,02,09,3.80
2010,10,17,02,10,3.80
2010,10,17,02,11,3.80
2010,10,17,02,12,3.80
2010,10,17,02,13,3.80
2010,10,17,02,14,3.90
2010,10,17,02,15,3.90
2010,10,17,02,16,3.90
2010,10,17,02,17,3.90
2010,10,17,02,18,3.90
2010,10,17,02,19,3.90
2010,10,17,02,20,3.90
2010,10,17,02,21,3.90
2010,10,17,02,22,3.90
2010,10,17,02,23,3.90
2010,10,17,02,24,3.90
2010,10,17,02,25,3.90
2010,10,17,02,26,3.90
2010,10,17,02,27,3.90
2010,10,17,02,28,3.90
2010,10,17,02,29,3.90
2010,10,17,02,30,3.90
2010,10,17,02,31,3.90
2010,10,17,02,32,3.90
2010,10,17,02,33,3.90
2010,10,17,02,34,3.80
2010,10,17,02,35,3.80
2010,10,17,02,36,3.80
2010,10,17,02,37,3.80
2010,10,17,02,38,3.80
2010,10,17,02,39,3.80
2010,10,17,02,40,3.80
2010,10,17,02,41,3.80
2010,10,17,02,42,3.80
2010,10,17,02,43,3.80
2010,10,17,02,44,3.80
2010,10,17,02,45,3.80
2010,10,17,02,46,3.80
2010,10,17,02,47,3.70
2010,10,17,02,48,3.70
2010,10,17,02,49,3.70
2010,10,17,02,50,3.70
2010,10,17,02,51,3.70
2010,10,17,02,52,3.70
2010,10,17,02,53,3.70
2010,10,17,02,54,3.70
2010,10,17,02,55,3.70
2010,10,17,02,56,3.60
2010,10,17,02,57,3.60
2010,10,17,02,58,3.60
2010,10,17,02,59,3.60
2010,10,17,03,00,3.60
2010,10,17,03,01,3.60
2010,10,17,03,02,3.60
2010,10,17,03,03,3.60
2010,10,17,03,04,3.60
2010,10,17,03,05,3.60
2010,10,17,03,06,3.60
2010,10,17,03,07,3.60
2010,10,17,03,08,3.60
2010,10,17,03,09,3.50
2010,10,17,03,10,3.50
2010,10,17,03,11,3.50
2010,10,17,03,12,3.50
2010,10,17,03,13,3.50
2010,10,17,03,14,3.50
2010,10,17,03,15,3.50
2010,10,17,03,16,3.50
2010,10,17,03,17,3.50
2010,10,17,03,18,3.50
2010,10,17,03,19,3.50
2010,10,17,03,20,3.60
2010,10,17,03,21,3.60
2010,10,17,03,22,3.60
2010,10,17,03,23,3.60
2010,10,17,03,24,3.60
2010,10,17,03,25,3.60
2010,10,17,03,26,3.50
2010,10,17,03,27,3.50
2010,10,17,03,28,3.50
2010,10,17,03,29,3.40
2010,10,17,03,30,3.50
2010,10,17,03,31,3.50
2010,10,17,03,32,3.50
2010,10,17,03,33,3.50
2010,10,17,03,34,3.50
2010,10,17,03,35,3.50
2010,10,17,03,36,3.50
2010,10,17,03,37,3.50
2010,10,17,03,38,3.50
2010,10,17,03,39,3.40
2010,10,17,03,40,3.40
2010,10,17,03,41,3.40
2010,10,17,03,42,3.30
2010,10,17,03,43,3.30
2010,10,17,03,44,3.30
2010,10,17,03,45,3.20
2010,10,17,03,46,3.20
2010,10,17,03,47,3.20
2010,10,17,03,48,3.10
2010,10,17,03,49,3.10
2010,10,17,03,50,3.10
2010,10,17,03,51,3.10
2010,10,17,03,52,3.10
2010,10,17,03,53,3.00
2010,10,17,03,54,3.00
2010,10,17,03,55,3.00
2010,10,17,03,56,2.90
2010,10,17,03,57,2.90
2010,10,17,03,58,2.90
2010,10,17,03,59,2.90
2010,10,17,04,00,2.90
2010,10,17,04,01,2.90
2010,10,17,04,02,2.90
2010,10,17,04,03,2.90
2010,10,17,04,04,2.90
2010,10,17,04,05,2.90
2010,10,17,04,06,2.90
2010,10,17,04,07,2.90
2010,10,17,04,08,2.90
2010,10,17,04,09,2.90
2010,10,17,04,10,2.90
2010,10,17,04,11,2.90
2010,10,17,04,12,2.90
2010,10,17,04,13,2.80
2010,10,17,04,14,2.80
2010,10,17,04,15,2.80
2010,10,17,04,16,2.80
2010,10,17,04,17,2.80
2010,10,17,04,18,2.70
2010,10,17,04,19,2.70
2010,10,17,04,20,2.70
2010,10,17,04,21,2.70
2010,10,17,04,22,2.70
2010,10,17,04,23,2.70
2010,10,17,04,24,2.70
2010,10,17,04,25,2.80
2010,10,17,04,26,2.80
2010,10,17,04,27,2.80
2010,10,17,04,28,2.80
2010,10,17,04,29,2.80
2010,10,17,04,30,2.80
2010,10,17,04,31,2.80
2010,10,17,04,32,2.80
2010,10,17,04,33,2.80
2010,10,17,04,34,2.80
2010,10,17,04,35,2.80
2010,10,17,04,36,2.80
2010,10,17,04,37,2.80
2010,10,17,04,38,2.80
2010,10,17,04,39,2.80
2010,10,17,04,40,2.80
2010,10,17,04,41,2.80
2010,10,17,04,42,2.80
2010,10,17,04,43,2.80
2010,10,17,04,44,2.80
2010,10,17,04,45,2.80
2010,10,17,04,46,2.80
2010,10,17,04,47,2.80
2010,10,17,04,48,2.80
2010,10,17,04,49,2.70
2010,10,17,04,50,2.70
2010,10,17,04,51,2.70
2010,10,17,04,52,2.70
2010,10,17,04,53,2.70
2010,10,17,04,54,2.70
2010,10,17,04,55,2.70
2010,10,17,04,56,2.70
2010,10,17,04,57,2.70
2010,10,17,04,58,2.70
2010,10,17,04,59,2.70
2010,10,17,05,00,2.70
2010,10,17,05,01,2.70
2010,10,17,05,02,2.70
2010,10,17,05,03,2.70
2010,10,17,05,04,2.70
2010,10,17,05,05,2.70
2010,10,17,05,06,2.70
2010,10,17,05,07,2.70
2010,10,17,05,08,2.70
2010,10,17,05,09,2.70
2010,10,17,05,10,2.70
2010,10,17,05,11,2.70
2010,10,17,05,12,2.70
2010,10,17,05,13,2.70
2010,10,17,05,14,2.70
2010,10,17,05,15,2.70
2010,10,17,05,16,2.70
2010,10,17,05,17,2.70
2010,10,17,05,18,2.70
2010,10,17,05,19,2.70
2010,10,17,05,20,2.60
2010,10,17,05,21,2.60
2010,10,17,05,22,2.60
2010,10,17,05,23,2.60
2010,10,17,05,24,2.60
2010,10,17,05,25,2.50
2010,10,17,05,26,2.50
2010,10,17,05,27,2.50
2010,10,17,05,28,2.50
2010,10,17,05,29,2.40
2010,10,17,05,30,2.40
2010,10,17,05,31,2.40
2010,10,17,05,32,2.40
2010,10,17,05,33,2.40
2010,10,17,05,34,2.40
2010,10,17,05,35,2.40
2010,10,17,05,36,2.40
2010,10,17,05,37,2.40
2010,10,17,05,38,2.40
2010,10,17,05,39,2.40
2010,10,17,05,40,2.40
2010,10,17,05,41,2.40
2010,10,17,05,42,2.40
2010,10,17,05,43,2.40
2010,10,17,05,44,2.40
2010,10,17,05,45,2.40
2010,10,17,05,46,2.30
2010,10,17,05,47,2.30
2010,10,17,05,48,2.30
2010,10,17,05,49,2.30
2010,10,17,05,50,2.30
2010,10,17,05,51,2.30
2010,10,17,05,52,2.30
2010,10,17,05,53,2.20
2010,10,17,05,54,2.20
2010,10,17,05,55,2.20
2010,10,17,05,56,2.20
2010,10,17,05,57,2.20
2010,10,17,05,58,2.20
2010,10,17,05,59,2.10
2010,10,17,06,00,2.10
2010,10,17,06,01,2.10
2010,10,17,06,02,2.10
2010,10,17,06,03,2.20
2010,10,17,06,04,2.20
2010,10,17,06,05,2.20
2010,10,17,06,06,2.20
2010,10,17,06,07,2.30
2010,10,17,06,08,2.30
2010,10,17,06,09,2.30
2010,10,17,06,10,2.30
2010,10,17,06,11,2.30
2010,10,17,06,12,2.30
2010,10,17,06,13,2.30
2010,10,17,06,14,2.30
2010,10,17,06,15,2.30
2010,10,17,06,16,2.30
2010,10,17,06,17,2.30
2010,10,17,06,18,2.30
2010,10,17,06,19,2.30
2010,10,17,06,20,2.30
2010,10,17,06,21,2.30
2010,10,17,06,22,2.20
2010,10,17,06,23,2.20
2010,10,17,06,24,2.20
2010,10,17,06,25,2.30
2010,10,17,06,26,2.30
2010,10,17,06,27,2.30
2010,10,17,06,28,2.30
2010,10,17,06,29,2.20
2010,10,17,06,30,2.20
2010,10,17,06,31,2.20
2010,10,17,06,32,2.20
2010,10,17,06,33,2.20
2010,10,17,06,34,2.20
2010,10,17,06,35,2.20
2010,10,17,06,36,2.20
2010,10,17,06,37,2.20
2010,10,17,06,38,2.20
2010,10,17,06,39,2.20
2010,10,17,06,40,2.20
2010,10,17,06,41,2.10
2010,10,17,06,42,2.10
2010,10,17,06,43,2.10
2010,10,17,06,44,2.10
2010,10,17,06,45,2.10
2010,10,17,06,46,2.20
2010,10,17,06,47,2.20
2010,10,17,06,48,2.20
2010,10,17,06,49,2.20
2010,10,17,06,50,2.20
2010,10,17,06,51,2.20
2010,10,17,06,52,2.20
2010,10,17,06,53,2.20
2010,10,17,06,54,2.20
2010,10,17,06,55,2.20
2010,10,17,06,56,2.20
2010,10,17,06,57,2.20
2010,10,17,06,58,2.20
2010,10,17,06,59,2.30
2010,10,17,07,00,2.30
2010,10,17,07,01,2.30
2010,10,17,07,02,2.30
2010,10,17,07,03,2.40
2010,10,17,07,04,2.40
2010,10,17,07,05,2.40
2010,10,17,07,06,2.40
2010,10,17,07,07,2.40
2010,10,17,07,08,2.40
2010,10,17,07,09,2.40
2010,10,17,07,10,2.40
2010,10,17,07,11,2.40
2010,10,17,07,12,2.40
2010,10,17,07,13,2.40
2010,10,17,07,14,2.40
2010,10,17,07,15,2.30
2010,10,17,07,16,2.30
2010,10,17,07,17,2.30
2010,10,17,07,18,2.30
2010,10,17,07,19,2.30
2010,10,17,07,20,2.30
2010,10,17,07,21,2.40
2010,10,17,07,22,2.40
2010,10,17,07,23,2.40
2010,10,17,07,24,2.50
2010,10,17,07,25,2.50
2010,10,17,07,26,2.60
2010,10,17,07,27,2.50
2010,10,17,07,28,2.50
2010,10,17,07,29,2.50
2010,10,17,07,30,2.40
2010,10,17,07,31,2.40
2010,10,17,07,32,2.30
2010,10,17,07,33,2.30
2010,10,17,07,34,2.30
2010,10,17,07,35,2.30
2010,10,17,07,36,2.30
2010,10,17,07,37,2.30
2010,10,17,07,38,2.30
2010,10,17,07,39,2.30
2010,10,17,07,40,2.30
2010,10,17,07,41,2.30
2010,10,17,07,42,2.30
2010,10,17,07,43,2.30
2010,10,17,07,44,2.30
2010,10,17,07,45,2.30
2010,10,17,07,46,2.30
2010,10,17,07,47,2.30
2010,10,17,07,48,2.30
2010,10,17,07,49,2.30
2010,10,17,07,50,2.30
2010,10,17,07,51,2.30
2010,10,17,07,52,2.30
2010,10,17,07,53,2.30
2010,10,17,07,54,2.30
2010,10,17,07,55,2.30
2010,10,17,07,56,2.30
2010,10,17,07,57,2.30
2010,10,17,07,58,2.30
2010,10,17,07,59,2.40
2010,10,17,08,00,2.40
2010,10,17,08,01,2.50
2010,10,17,08,02,2.60
2010,10,17,08,03,2.60
2010,10,17,08,04,2.60
2010,10,17,08,05,2.70
2010,10,17,08,06,2.70
2010,10,17,08,07,2.70
2010,10,17,08,08,2.80
2010,10,17,08,09,2.80
2010,10,17,08,10,2.90
2010,10,17,08,11,2.90
2010,10,17,08,12,3.00
2010,10,17,08,13,3.10
2010,10,17,08,14,3.10
2010,10,17,08,15,3.20
2010,10,17,08,16,3.20
2010,10,17,08,17,3.30
2010,10,17,08,18,3.30
2010,10,17,08,19,3.30
2010,10,17,08,20,3.40
2010,10,17,08,21,3.40
2010,10,17,08,22,3.40
2010,10,17,08,23,3.50
2010,10,17,08,24,3.50
2010,10,17,08,25,3.60
2010,10,17,08,26,3.70
2010,10,17,08,27,3.90
2010,10,17,08,28,4.00
2010,10,17,08,29,4.20
2010,10,17,08,30,4.30
2010,10,17,08,31,4.40
2010,10,17,08,32,4.60
2010,10,17,08,33,4.70
2010,10,17,08,34,4.80
2010,10,17,08,35,5.00
2010,10,17,08,36,5.10
2010,10,17,08,37,5.30
2010,10,17,08,38,5.40
2010,10,17,08,39,5.50
2010,10,17,08,40,5.60
2010,10,17,08,41,5.80
2010,10,17,08,42,5.80
2010,10,17,08,43,5.90
2010,10,17,08,44,6.00
2010,10,17,08,45,6.10
2010,10,17,08,46,6.20
2010,10,17,08,47,6.20
2010,10,17,08,48,6.30
2010,10,17,08,49,6.40
2010,10,17,08,50,6.40
2010,10,17,08,51,6.50
2010,10,17,08,52,6.60
2010,10,17,08,53,6.80
2010,10,17,08,54,6.90
2010,10,17,08,55,7.00
2010,10,17,08,56,7.10
2010,10,17,08,57,7.20
2010,10,17,08,58,7.20
2010,10,17,08,59,7.30
2010,10,17,09,00,7.30
2010,10,17,09,01,7.40
2010,10,17,09,02,7.40
2010,10,17,09,03,7.40
2010,10,17,09,04,7.50
2010,10,17,09,05,7.50
2010,10,17,09,06,7.50
2010,10,17,09,07,7.50
2010,10,17,09,08,7.50
2010,10,17,09,09,7.50
2010,10,17,09,10,7.50
2010,10,17,09,11,7.50
2010,10,17,09,12,7.50
2010,10,17,09,13,7.50
2010,10,17,09,14,7.50
2010,10,17,09,15,7.50
2010,10,17,09,16,7.50
2010,10,17,09,17,7.50
2010,10,17,09,18,7.50
2010,10,17,09,19,7.60
2010,10,17,09,20,7.60
2010,10,17,09,21,7.70
2010,10,17,09,22,7.70
2010,10,17,09,23,7.80
2010,10,17,09,24,7.80
2010,10,17,09,25,7.90
2010,10,17,09,26,8.00
2010,10,17,09,27,8.00
2010,10,17,09,28,8.10
2010,10,17,09,29,8.20
2010,10,17,09,30,8.20
2010,10,17,09,31,8.30
2010,10,17,09,32,8.30
2010,10,17,09,33,8.30
2010,10,17,09,34,8.40
2010,10,17,09,35,8.40
2010,10,17,09,36,8.50
2010,10,17,09,37,8.60
2010,10,17,09,38,8.60
2010,10,17,09,39,8.60
2010,10,17,09,40,8.60
2010,10,17,09,41,8.70
2010,10,17,09,42,8.70
2010,10,17,09,43,8.80
2010,10,17,09,44,8.90
2010,10,17,09,45,8.90
2010,10,17,09,46,9.00
2010,10,17,09,47,9.00
2010,10,17,09,48,9.00
2010,10,17,09,49,9.10
2010,10,17,09,50,9.00
2010,10,17,09,51,9.00
2010,10,17,09,52,9.00
2010,10,17,09,53,9.00
2010,10,17,09,54,9.00
2010,10,17,09,55,9.10
2010,10,17,09,56,9.10
2010,10,17,09,57,9.10
2010,10,17,09,58,9.10
2010,10,17,09,59,9.10
2010,10,17,10,00,9.20
2010,10,17,10,01,9.20
2010,10,17,10,02,9.20
2010,10,17,10,03,9.20
2010,10,17,10,04,9.20
2010,10,17,10,05,9.20
2010,10,17,10,06,9.20
2010,10,17,10,07,9.30
2010,10,17,10,08,9.30
2010,10,17,10,09,9.30
2010,10,17,10,10,9.40
2010,10,17,10,11,9.40
2010,10,17,10,12,9.50
2010,10,17,10,13,9.60
2010,10,17,10,14,9.60
2010,10,17,10,15,9.70
2010,10,17,10,16,9.70
2010,10,17,10,17,9.70
2010,10,17,10,18,9.70
2010,10,17,10,19,9.70
2010,10,17,10,20,9.70
2010,10,17,10,21,9.70
2010,10,17,10,22,9.80
2010,10,17,10,23,9.80
2010,10,17,10,24,9.80
2010,10,17,10,25,9.80
2010,10,17,10,26,9.90
2010,10,17,10,27,9.90
2010,10,17,10,28,9.90
2010,10,17,10,29,10.00
2010,10,17,10,30,10.00
2010,10,17,10,31,10.00
2010,10,17,10,32,10.10
2010,10,17,10,33,10.10
2010,10,17,10,34,10.10
2010,10,17,10,35,10.10
2010,10,17,10,36,10.10
2010,10,17,10,37,10.10
2010,10,17,10,38,10.10
2010,10,17,10,39,10.10
2010,10,17,10,40,10.20
2010,10,17,10,41,10.20
2010,10,17,10,42,10.20
2010,10,17,10,43,10.20
2010,10,17,10,44,10.30
2010,10,17,10,45,10.30
2010,10,17,10,46,10.30
2010,10,17,10,47,10.30
2010,10,17,10,48,10.30
2010,10,17,10,49,10.30
2010,10,17,10,50,10.30
2010,10,17,10,51,10.30
2010,10,17,10,52,10.20
2010,10,17,10,53,10.20
2010,10,17,10,54,10.10
2010,10,17,10,55,10.10
2010,10,17,10,56,10.10
2010,10,17,10,57,10.00
2010,10,17,10,58,10.00
2010,10,17,10,59,10.00
2010,10,17,11,00,10.00
2010,10,17,11,01,10.00
2010,10,17,11,02,10.00
2010,10,17,11,03,10.00
2010,10,17,11,04,10.10
2010,10,17,11,05,10.10
2010,10,17,11,06,10.10
2010,10,17,11,07,10.20
2010,10,17,11,08,10.20
2010,10,17,11,09,10.30
2010,10,17,11,10,10.30
2010,10,17,11,11,10.30
2010,10,17,11,12,10.30
2010,10,17,11,13,10.30
2010,10,17,11,14,10.30
2010,10,17,11,15,10.40
2010,10,17,11,16,10.40
2010,10,17,11,17,10.40
2010,10,17,11,18,10.40
2010,10,17,11,19,10.50
2010,10,17,11,20,10.50
2010,10,17,11,21,10.50
2010,10,17,11,22,10.60
2010,10,17,11,23,10.60
2010,10,17,11,24,10.60
2010,10,17,11,25,10.70
2010,10,17,11,26,10.70
2010,10,17,11,27,10.70
2010,10,17,11,28,10.60
2010,10,17,11,29,10.60
2010,10,17,11,30,10.60
2010,10,17,11,31,10.60
2010,10,17,11,32,10.60
2010,10,17,11,33,10.60
2010,10,17,11,34,10.60
2010,10,17,11,35,10.60
2010,10,17,11,36,10.60
2010,10,17,11,37,10.60
2010,10,17,11,38,10.70
2010,10,17,11,39,10.70
2010,10,17,11,40,10.70
2010,10,17,11,41,10.70
2010,10,17,11,42,10.70
2010,10,17,11,43,10.80
2010,10,17,11,44,10.80
2010,10,17,11,45,10.80
2010,10,17,11,46,10.80
2010,10,17,11,47,10.80
2010,10,17,11,48,10.90
2010,10,17,11,49,10.90
2010,10,17,11,50,10.90
2010,10,17,11,51,10.90
2010,10,17,11,52,10.90
2010,10,17,11,53,10.90
2010,10,17,11,54,10.90
2010,10,17,11,55,10.90
2010,10,17,11,56,10.90
2010,10,17,11,57,10.90
2010,10,17,11,58,10.90
2010,10,17,11,59,10.90
2010,10,17,12,00,10.90
2010,10,17,12,01,11.00
2010,10,17,12,02,11.00
2010,10,17,12,03,11.00
2010,10,17,12,04,11.10
2010,10,17,12,05,11.20
2010,10,17,12,06,11.20
2010,10,17,12,07,11.20
2010,10,17,12,08,11.30
2010,10,17,12,09,11.30
2010,10,17,12,10,11.30
2010,10,17,12,11,11.30
2010,10,17,12,12,11.20
2010,10,17,12,13,11.10
2010,10,17,12,14,11.10
2010,10,17,12,15,11.10
2010,10,17,12,16,11.00
2010,10,17,12,17,11.00
2010,10,17,12,18,11.00
2010,10,17,12,19,11.00
2010,10,17,12,20,11.00
2010,10,17,12,21,11.00
2010,10,17,12,22,11.00
2010,10,17,12,23,11.10
2010,10,17,12,24,11.20
2010,10,17,12,25,11.20
2010,10,17,12,26,11.30
2010,10,17,12,27,11.30
2010,10,17,12,28,11.30
2010,10,17,12,29,11.30
2010,10,17,12,30,11.30
2010,10,17,12,31,11.40
2010,10,17,12,32,11.40
2010,10,17,12,33,11.40
2010,10,17,12,34,11.40
2010,10,17,12,35,11.40
2010,10,17,12,36,11.40
2010,10,17,12,37,11.30
2010,10,17,12,38,11.20
2010,10,17,12,39,11.20
2010,10,17,12,40,11.10
2010,10,17,12,41,11.10
2010,10,17,12,42,11.20
2010,10,17,12,43,11.20
2010,10,17,12,44,11.20
2010,10,17,12,45,11.20
2010,10,17,12,46,11.20
2010,10,17,12,47,11.20
2010,10,17,12,48,11.20
2010,10,17,12,49,11.20
2010,10,17,12,50,11.20
2010,10,17,12,51,11.20
2010,10,17,12,52,11.30
2010,10,17,12,53,11.20
2010,10,17,12,54,11.20
2010,10,17,12,55,11.20
2010,10,17,12,56,11.30
2010,10,17,12,57,11.30
2010,10,17,12,58,11.30
2010,10,17,12,59,11.20
2010,10,17,13,00,11.30
2010,10,17,13,01,11.30
2010,10,17,13,02,11.30
2010,10,17,13,03,11.30
2010,10,17,13,04,11.30
2010,10,17,13,05,11.40
2010,10,17,13,06,11.40
2010,10,17,13,07,11.40
2010,10,17,13,08,11.40
2010,10,17,13,09,11.40
2010,10,17,13,10,11.40
2010,10,17,13,11,11.40
2010,10,17,13,12,11.40
2010,10,17,13,13,11.50
2010,10,17,13,14,11.50
2010,10,17,13,15,11.60
2010,10,17,13,16,11.60
2010,10,17,13,17,11.70
2010,10,17,13,18,11.80
2010,10,17,13,19,11.80
2010,10,17,13,20,11.80
2010,10,17,13,21,11.80
2010,10,17,13,22,11.90
2010,10,17,13,23,11.90
2010,10,17,13,24,11.90
2010,10,17,13,25,12.00
2010,10,17,13,26,12.10
2010,10,17,13,27,12.20
2010,10,17,13,28,12.30
2010,10,17,13,29,12.30
2010,10,17,13,30,12.50
2010,10,17,13,31,12.50
2010,10,17,13,32,12.60
2010,10,17,13,33,12.60
2010,10,17,13,34,12.60
2010,10,17,13,35,12.60
2010,10,17,13,36,12.60
2010,10,17,13,37,12.50
2010,10,17,13,38,12.40
2010,10,17,13,39,12.40
2010,10,17,13,40,12.40
2010,10,17,13,41,12.40
2010,10,17,13,42,12.40
2010,10,17,13,43,12.40
2010,10,17,13,44,12.50
2010,10,17,13,45,12.60
2010,10,17,13,46,12.50
2010,10,17,13,47,12.50
2010,10,17,13,48,12.40
2010,10,17,13,49,12.40
2010,10,17,13,50,12.40
2010,10,17,13,51,12.40
2010,10,17,13,52,12.50
2010,10,17,13,53,12.50
2010,10,17,13,54,12.60
2010,10,17,13,55,12.60
2010,10,17,13,56,12.60
2010,10,17,13,57,12.60
2010,10,17,13,58,12.60
2010,10,17,13,59,12.50
2010,10,17,14,00,12.50
2010,10,17,14,01,12.50
2010,10,17,14,02,12.50
2010,10,17,14,03,12.60
2010,10,17,14,04,12.70
2010,10,17,14,05,12.80
2010,10,17,14,06,12.80
2010,10,17,14,07,12.80
2010,10,17,14,08,12.80
2010,10,17,14,09,12.80
2010,10,17,14,10,12.80
2010,10,17,14,11,12.80
2010,10,17,14,12,12.70
2010,10,17,14,13,12.60
2010,10,17,14,14,12.50
2010,10,17,14,15,12.50
2010,10,17,14,16,12.40
2010,10,17,14,17,12.30
2010,10,17,14,18,12.20
2010,10,17,14,19,12.20
2010,10,17,14,20,12.10
2010,10,17,14,21,12.10
2010,10,17,14,22,12.10
2010,10,17,14,23,12.20
2010,10,17,14,24,12.20
2010,10,17,14,25,12.20
2010,10,17,14,26,12.20
2010,10,17,14,27,12.10
2010,10,17,14,28,12.10
2010,10,17,14,29,12.10
2010,10,17,14,30,12.10
2010,10,17,14,31,12.10
2010,10,17,14,32,12.10
2010,10,17,14,33,12.10
2010,10,17,14,34,12.10
2010,10,17,14,35,12.10
2010,10,17,14,36,12.10
2010,10,17,14,37,12.10
2010,10,17,14,38,12.10
2010,10,17,14,39,12.20
2010,10,17,14,40,12.10
2010,10,17,14,41,12.10
2010,10,17,14,42,12.10
2010,10,17,14,43,12.10
2010,10,17,14,44,12.10
2010,10,17,14,45,12.00
2010,10,17,14,46,12.00
2010,10,17,14,47,12.00
2010,10,17,14,48,12.10
2010,10,17,14,49,12.10
2010,10,17,14,50,12.10
2010,10,17,14,51,12.20
2010,10,17,14,52,12.20
2010,10,17,14,53,12.20
2010,10,17,14,54,12.20
2010,10,17,14,55,12.20
2010,10,17,14,56,12.20
2010,10,17,14,57,12.20
2010,10,17,14,58,12.20
2010,10,17,14,59,12.10
2010,10,17,15,00,12.10
2010,10,17,15,01,12.10
2010,10,17,15,02,12.20
2010,10,17,15,03,12.20
2010,10,17,15,04,12.20
2010,10,17,15,05,12.20
2010,10,17,15,06,12.30
2010,10,17,15,07,12.30
2010,10,17,15,08,12.30
2010,10,17,15,09,12.30
2010,10,17,15,10,12.30
2010,10,17,15,11,12.30
2010,10,17,15,12,12.30
2010,10,17,15,13,12.30
2010,10,17,15,14,12.30
2010,10,17,15,15,12.30
2010,10,17,15,16,12.30
2010,10,17,15,17,12.20
2010,10,17,15,18,12.20
2010,10,17,15,19,12.20
2010,10,17,15,20,12.20
2010,10,17,15,21,12.20
2010,10,17,15,22,12.20
2010,10,17,15,23,12.20
2010,10,17,15,24,12.20
2010,10,17,15,25,12.20
2010,10,17,15,26,12.20
2010,10,17,15,27,12.20
2010,10,17,15,28,12.30
2010,10,17,15,29,12.30
2010,10,17,15,30,12.30
2010,10,17,15,31,12.40
2010,10,17,15,32,12.40
2010,10,17,15,33,12.30
2010,10,17,15,34,12.30
2010,10,17,15,35,12.20
2010,10,17,15,36,12.20
2010,10,17,15,37,12.20
2010,10,17,15,38,12.20
2010,10,17,15,39,12.20
2010,10,17,15,40,12.20
2010,10,17,15,41,12.20
2010,10,17,15,42,12.10
2010,10,17,15,43,12.10
2010,10,17,15,44,12.10
2010,10,17,15,45,12.10
2010,10,17,15,46,12.10
2010,10,17,15,47,12.10
2010,10,17,15,48,12.10
2010,10,17,15,49,12.00
2010,10,17,15,50,12.00
2010,10,17,15,51,12.00
2010,10,17,15,52,11.90
2010,10,17,15,53,11.90
2010,10,17,15,54,11.90
2010,10,17,15,55,11.90
2010,10,17,15,56,11.80
2010,10,17,15,57,11.80
2010,10,17,15,58,11.80
2010,10,17,15,59,11.80
2010,10,17,16,00,11.70
2010,10,17,16,01,11.70
2010,10,17,16,02,11.70
2010,10,17,16,03,11.70
2010,10,17,16,04,11.70
2010,10,17,16,05,11.70
2010,10,17,16,06,11.60
2010,10,17,16,07,11.60
2010,10,17,16,08,11.60
2010,10,17,16,09,11.60
2010,10,17,16,10,11.60
2010,10,17,16,11,11.60
2010,10,17,16,12,11.60
2010,10,17,16,13,11.50
2010,10,17,16,14,11.50
2010,10,17,16,15,11.40
2010,10,17,16,16,11.40
2010,10,17,16,17,11.40
2010,10,17,16,18,11.40
2010,10,17,16,19,11.40
2010,10,17,16,20,11.40
2010,10,17,16,21,11.40
2010,10,17,16,22,11.40
2010,10,17,16,23,11.40
2010,10,17,16,24,11.40
2010,10,17,16,25,11.40
2010,10,17,16,26,11.40
2010,10,17,16,27,11.40
2010,10,17,16,28,11.40
2010,10,17,16,29,11.40
2010,10,17,16,30,11.50
2010,10,17,16,31,11.50
2010,10,17,16,32,11.50
2010,10,17,16,33,11.50
2010,10,17,16,34,11.50
2010,10,17,16,35,11.60
2010,10,17,16,36,11.60
2010,10,17,16,37,11.60
2010,10,17,16,38,11.60
2010,10,17,16,39,11.60
2010,10,17,16,40,11.60
2010,10,17,16,41,11.60
2010,10,17,16,42,11.60
2010,10,17,16,43,11.60
2010,10,17,16,44,11.60
2010,10,17,16,45,11.50
2010,10,17,16,46,11.50
2010,10,17,16,47,11.50
2010,10,17,16,48,11.60
2010,10,17,16,49,11.60
2010,10,17,16,50,11.60
2010,10,17,16,51,11.60
2010,10,17,16,52,11.60
2010,10,17,16,53,11.60
2010,10,17,16,54,11.60
2010,10,17,16,55,11.70
2010,10,17,16,56,11.70
2010,10,17,16,57,11.70
2010,10,17,16,58,11.80
2010,10,17,16,59,11.80
2010,10,17,17,00,11.80
2010,10,17,17,01,11.80
2010,10,17,17,02,11.80
2010,10,17,17,03,11.80
2010,10,17,17,04,11.90
2010,10,17,17,05,11.90
2010,10,17,17,06,11.90
2010,10,17,17,07,11.90
2010,10,17,17,08,11.90
2010,10,17,17,09,11.90
2010,10,17,17,10,11.90
2010,10,17,17,11,11.90
2010,10,17,17,12,11.90
2010,10,17,17,13,11.90
2010,10,17,17,14,11.90
2010,10,17,17,15,12.00
2010,10,17,17,16,12.00
2010,10,17,17,17,12.00
2010,10,17,17,18,12.00
2010,10,17,17,19,11.90
2010,10,17,17,20,11.90
2010,10,17,17,21,11.80
2010,10,17,17,22,11.70
2010,10,17,17,23,11.50
2010,10,17,17,24,11.40
2010,10,17,17,25,11.30
2010,10,17,17,26,11.20
2010,10,17,17,27,11.10
2010,10,17,17,28,11.10
2010,10,17,17,29,11.10
2010,10,17,17,30,11.00
2010,10,17,17,31,11.00
2010,10,17,17,32,10.90
2010,10,17,17,33,10.90
2010,10,17,17,34,10.90
2010,10,17,17,35,10.90
2010,10,17,17,36,10.90
2010,10,17,17,37,10.90
2010,10,17,17,38,10.90
2010,10,17,17,39,10.90
2010,10,17,17,40,10.90
2010,10,17,17,41,10.90
2010,10,17,17,42,10.80
2010,10,17,17,43,10.80
2010,10,17,17,44,10.80
2010,10,17,17,45,10.80
2010,10,17,17,46,10.80